Date String (YYYY-MM-DD hh:mm:ss) UTC,Instrument flags,Ambient pressure (hPa),Sample flow (lpm),Bypass flow (lpm),Sample temperature (°C),Ambient temperature (°C),ASC tube jacket temperature (°C),LED temperature (°C),Box temperature (°C),Sample RH (%),Span deviation,Mass concentration (μg/m³),Mass concentration (μg/m³),Mass concentration (μg/m³)
DateTimeUTC,F1_M11,P_M11,Q1_M11,Q2_M11,T1_M11,T2_M11,T3_M11,T4_M11,T5_M11,U1_M11,ZSPAN_M11,X0_M11,X2_M11,X1_M11
2022-10-15 16:00:00,,0829.5,5.00,0.00,28.6,27.4,00.0,37.4,30.5,14.6,0000.0,0009.81,0005.21,0004.81
2022-10-15 16:01:00,,0829.5,5.00,0.00,28.6,27.4,00.0,37.4,30.5,14.6,0000.0,0010.12,0005.26,0004.85
2022-10-15 16:02:00,,0829.4,5.00,0.00,28.6,27.5,00.0,37.4,30.5,14.7,0000.0,0009.79,0005.29,0004.86
2022-10-15 16:03:00,,0829.3,5.00,0.00,28.7,27.5,00.0,37.4,30.5,14.7,0000.0,0009.72,0005.31,0004.89
2022-10-15 16:04:00,,0829.3,5.00,0.00,28.7,27.5,00.0,37.4,30.5,14.6,0000.0,0009.96,0005.38,0004.94
2022-10-15 16:05:00,,0829.4,5.00,0.00,28.7,27.5,00.0,37.4,30.6,14.7,0000.0,0009.96,0005.39,0004.96
2022-10-15 16:06:00,,0829.4,5.00,0.00,28.7,27.5,00.0,37.5,30.6,14.6,0000.0,0009.54,0005.40,0004.95
2022-10-15 16:07:00,,0829.4,5.00,0.00,28.7,27.5,00.0,37.5,30.6,14.7,0000.0,0009.61,0005.41,0004.95
2022-10-15 16:08:00,,0829.3,5.00,0.00,28.7,27.5,00.0,37.5,30.6,14.8,0000.0,0009.75,0005.37,0004.93
2022-10-15 16:09:00,,0829.4,5.01,0.00,28.7,27.6,00.0,37.5,30.6,14.7,0000.0,0009.96,0005.36,0004.92
2022-10-15 16:10:00,,0829.4,5.00,0.00,28.8,27.6,00.0,37.5,30.6,14.6,0000.0,0010.21,0005.36,0004.94
2022-10-15 16:11:00,,0829.3,4.99,0.00,28.8,27.6,00.0,37.5,30.6,14.6,0000.0,0010.33,0005.40,0004.95
2022-10-15 16:12:00,,0829.3,4.99,0.00,28.8,27.6,00.0,37.5,30.7,14.9,0000.0,0010.11,0005.40,0004.95
2022-10-15 16:13:00,,0829.3,5.00,0.00,28.8,27.6,00.0,37.6,30.7,14.7,0000.0,0009.97,0005.41,0004.96
2022-10-15 16:14:00,,0829.4,5.01,0.00,28.8,27.6,00.0,37.6,30.7,14.7,0000.0,0009.96,0005.42,0004.96
2022-10-15 16:15:00,,0829.3,4.99,0.00,28.8,27.6,00.0,37.6,30.7,14.7,0000.0,0009.73,0005.41,0004.96
2022-10-15 16:16:00,,0829.3,5.00,0.00,28.8,27.7,00.0,37.6,30.7,14.5,0000.0,0009.76,0005.43,0004.97
2022-10-15 16:17:00,,0829.3,5.00,0.00,28.8,27.7,00.0,37.6,30.7,14.6,0000.0,0009.88,0005.43,0004.98
2022-10-15 16:18:00,,0829.3,5.00,0.00,28.9,27.7,00.0,37.6,30.7,14.5,0000.0,0009.80,0005.38,0004.98
2022-10-15 16:19:00,,0829.3,5.01,0.00,28.9,27.7,00.0,37.6,30.7,14.6,0000.0,0009.59,0005.38,0004.99
2022-10-15 16:20:00,,0829.3,5.01,0.00,28.9,27.7,00.0,37.7,30.7,14.6,0000.0,0009.23,0005.39,0005.00
2022-10-15 16:21:00,,0829.4,4.99,0.00,28.9,27.7,00.0,37.7,30.8,14.7,0000.0,0009.06,0005.41,0005.00
2022-10-15 16:22:00,,0829.3,4.99,0.00,28.9,27.7,00.0,37.7,30.8,14.7,0000.0,0009.10,0005.39,0004.99
2022-10-15 16:23:00,,0829.3,4.99,0.00,28.9,27.8,00.0,37.7,30.8,14.6,0000.0,0009.66,0005.40,0005.00
2022-10-15 16:24:00,,0829.3,4.99,0.00,28.9,27.8,00.0,37.7,30.8,14.5,0000.0,0009.99,0005.41,0005.00
2022-10-15 16:25:00,,0829.2,5.00,0.00,29.0,27.8,00.0,37.7,30.8,14.6,0000.0,0009.92,0005.40,0005.00
2022-10-15 16:26:00,,0829.2,5.01,0.00,29.0,27.8,00.0,37.7,30.8,14.7,0000.0,0010.16,0005.37,0004.99
2022-10-15 16:27:00,,0829.3,5.01,0.00,29.0,27.8,00.0,37.7,30.8,14.7,0000.0,0010.67,0005.38,0005.00
2022-10-15 16:28:00,,0829.2,4.99,0.00,29.0,27.8,00.0,37.8,30.9,14.7,0000.0,0010.91,0005.36,0005.00
2022-10-15 16:29:00,,0829.3,5.01,0.00,29.0,27.8,00.0,37.8,30.9,14.6,0000.0,0010.80,0005.38,0005.01
2022-10-15 16:30:00,,0829.2,5.01,0.00,29.0,27.8,00.0,37.8,30.9,14.6,0000.0,0010.68,0005.41,0005.02
2022-10-15 16:31:00,,0829.2,5.01,0.00,29.0,27.8,00.0,37.8,30.9,14.6,0000.0,0010.92,0005.42,0005.02
2022-10-15 16:32:00,,0829.3,5.00,0.00,29.0,27.9,00.0,37.8,30.9,14.6,0000.0,0010.82,0005.43,0005.02
2022-10-15 16:33:00,,0829.2,4.99,0.00,29.1,27.9,00.0,37.8,30.9,14.7,0000.0,0010.76,0005.47,0005.03
2022-10-15 16:34:00,,0829.3,5.00,0.00,29.1,27.9,00.0,37.8,31.0,14.7,0000.0,0010.29,0005.47,0005.04
2022-10-15 16:35:00,,0829.2,5.01,0.00,29.1,27.9,00.0,37.9,31.0,14.6,0000.0,0009.79,0005.47,0005.05
2022-10-15 16:36:00,,0829.2,5.00,0.00,29.1,27.9,00.0,37.9,31.0,14.5,0000.0,0010.08,0005.47,0005.05
2022-10-15 16:37:00,,0829.2,4.99,0.00,29.1,27.9,00.0,37.9,31.0,14.5,0000.0,0010.00,0005.49,0005.05
2022-10-15 16:38:00,,0829.2,5.00,0.00,29.1,27.9,00.0,37.9,31.0,14.6,0000.0,0010.12,0005.47,0005.04
2022-10-15 16:39:00,,0829.2,4.99,0.00,29.1,27.9,00.0,37.9,31.0,14.7,0000.0,0009.70,0005.45,0005.02
2022-10-15 16:40:00,,0829.3,5.01,0.00,29.1,27.9,00.0,37.9,31.0,14.6,0000.0,0009.72,0005.44,0005.01
2022-10-15 16:41:00,,0829.2,5.01,0.00,29.1,27.9,00.0,37.9,31.0,14.6,0000.0,0009.66,0005.43,0004.99
2022-10-15 16:42:00,,0829.2,4.99,0.00,29.1,27.9,00.0,37.9,31.0,14.6,0000.0,0009.42,0005.41,0004.99
2022-10-15 16:43:00,,0829.3,4.99,0.00,29.2,27.8,00.0,37.9,31.0,14.7,0000.0,0009.43,0005.38,0004.99
2022-10-15 16:44:00,,0829.2,5.00,0.00,29.2,27.8,00.0,38.0,31.0,14.6,0000.0,0009.42,0005.35,0004.99
2022-10-15 16:45:00,,0829.3,5.01,0.00,29.2,27.7,00.0,38.0,31.0,14.7,0000.0,0009.35,0005.32,0004.97
2022-10-15 16:46:00,,0829.3,5.00,0.00,29.2,27.8,00.0,38.0,31.0,14.7,0000.0,0009.96,0005.31,0004.96
2022-10-15 16:47:00,,0829.2,5.01,0.00,29.2,27.8,00.0,38.0,31.0,14.8,0000.0,0009.96,0005.31,0004.95
2022-10-15 16:48:00,,0829.2,4.99,0.00,29.2,27.8,00.0,38.0,31.0,14.6,0000.0,0009.75,0005.30,0004.96
2022-10-15 16:49:00,,0829.2,4.99,0.00,29.2,27.8,00.0,38.0,31.0,14.5,0000.0,0009.10,0005.29,0004.96
2022-10-15 16:50:00,,0829.3,5.00,0.00,29.2,27.8,00.0,38.0,31.0,14.6,0000.0,0008.99,0005.31,0004.96
2022-10-15 16:51:00,,0829.2,5.01,0.00,29.2,27.8,00.0,38.0,31.0,14.7,0000.0,0008.98,0005.30,0004.96
2022-10-15 16:52:00,,0829.3,4.99,0.00,29.2,27.9,00.0,38.0,31.0,14.7,0000.0,0009.57,0005.26,0004.94
2022-10-15 16:53:00,,0829.2,5.00,0.00,29.2,27.9,00.0,38.0,31.0,14.9,0000.0,0009.77,0005.25,0004.91
2022-10-15 16:54:00,,0829.3,5.01,0.00,29.2,27.9,00.0,38.0,31.0,15.0,0000.0,0010.35,0005.26,0004.89
2022-10-15 16:55:00,,0829.2,5.01,0.00,29.2,27.9,00.0,38.0,31.1,14.8,0000.0,0010.72,0005.25,0004.86
2022-10-15 16:56:00,,0829.2,4.99,0.00,29.2,27.9,00.0,38.0,31.1,14.7,0000.0,0010.94,0005.24,0004.85
2022-10-15 16:57:00,,0829.3,4.99,0.00,29.2,27.9,00.0,38.0,31.1,14.5,0000.0,0010.60,0005.22,0004.81
2022-10-15 16:58:00,,0829.2,5.00,0.00,29.2,27.9,00.0,38.0,31.1,14.7,0000.0,0010.62,0005.18,0004.78
2022-10-15 16:59:00,,0829.2,5.01,0.00,29.2,27.9,00.0,38.0,31.1,14.8,0000.0,0011.27,0005.15,0004.74
